Location: �clusier
(49.9361°N, 2.7869°E)
Time: 06:32:28
(UTC+00:00)

NOSS 3-2 (C) - Pass Details

Date: 16 June 2021
Orbit: 778 x 1434 km, 63.4° (Epoch: 14 July)

Event Time Altitude Azimuth Distance (km) Brightness Sun altitude
Rises 21:10:29 0° 228° (SW) 3,353 6.3 -8.6°
Reaches altitude 10° 21:12:47 10° 230° (SW) 2,477 5.6 -8.9°
Maximum altitude 21:18:30 75° 316° (NW) 975 3.7 -9.4°
Drops below altitude 10° 21:25:14 10° 42° (NE) 2,891 6.2 -10.0°
Sets 21:28:07 0° 44° (NE) 3,955 6.9 -10.2°
